Home   Weather   North Bay   Past weeks

Flag for Canada Past Weather in North Bay, Ontario, Canada — Yesterday and Last 2 Weeks

Now
52 °F

Clear.


Feels Like: 51 °F
Forecast: 53 / 73 °F
Wind: 3 mph from East

Location: North Bay

Current Time: Aug 17, 2017 at 6:02:35 am

Latest Report: Aug 17, 2017 at 5:00 am


Visibility: 9 mi

Pressure: 30.04 "Hg

Humidity: 82%

Dew Point: 46 °F

Location of North BayLocation

Past Weather in North Bay — Graph

°F

North Bay Temperature Yesterday

Maximum temperature yesterday: 68 °F (at 2:00 pm)
Minimum temperature yesterday: 48 °F (at 3:00 am)
Average temperature yesterday: 59 °F

High & Low Weather Summary for the Past Weeks

 TemperatureHumidityPressure
High77 °F (Aug 10, 4:00 pm)100% (Aug 6, 1:40 am)30.19 "Hg (Aug 6, 1:40 am)
Low48 °F (Aug 6, 4:00 am)39% (Aug 13, 4:00 pm)29.59 "Hg (Aug 5, 8:00 am)
Average61 °F82%29.96 "Hg
* Reported Aug 2 4:00 am — Aug 17 4:00 am, North Bay. Weather by CustomWeather, © 2017

Note: Actual official high and low records may vary slightly from our data, if they occured in-between our weather recording intervals... More about our weather records

Advertising

North Bay Weather History for the Previous 24 Hours

Scroll right to see more
 ConditionsComfort  
Time TempWeatherWind HumidityBarometerVisibility
4:00 am
Thu, Aug 17
50 °FClear.3 mph82%30.05 "Hg9 mi
3:00 am52 °FClear.3 mph82%30.06 "Hg9 mi
2:00 am50 °FClear.No wind82%30.08 "Hg9 mi
1:00 am48 °FClear.No wind87%30.09 "Hg9 mi
12:00 am50 °FClear.No wind88%30.09 "Hg9 mi
11:00 pm
Wed, Aug 16
54 °FClear.N/A82%30.08 "Hg9 mi
10:00 pm55 °FPassing clouds.No wind82%30.08 "Hg15 mi
9:00 pm57 °FPassing clouds.No wind72%30.08 "Hg15 mi
8:00 pm63 °FPartly sunny.No wind64%30.07 "Hg30 mi
7:00 pm66 °FPartly sunny.7 mph46%30.08 "Hg30 mi
6:00 pm68 °FPartly sunny.7 mph46%30.09 "Hg30 mi
5:00 pm68 °FPartly sunny.8 mph53%30.09 "Hg30 mi
4:00 pm68 °FPartly sunny.8 mph53%30.10 "Hg30 mi
3:00 pm68 °FPartly sunny.6 mph53%30.11 "Hg30 mi
2:00 pm68 °FPartly sunny.6 mph49%30.12 "Hg30 mi
1:00 pm66 °FPartly sunny.8 mph56%30.14 "Hg30 mi
12:00 pm64 °FPartly sunny.8 mph60%30.15 "Hg30 mi
11:00 am63 °FScattered clouds.6 mph64%30.16 "Hg30 mi
10:00 am63 °FScattered clouds.6 mph52%30.15 "Hg30 mi
9:00 am61 °FScattered clouds.6 mph63%30.14 "Hg30 mi
8:00 am55 °FPassing clouds.6 mph77%30.12 "Hg30 mi
7:00 am54 °FPassing clouds.6 mph82%30.09 "Hg30 mi
6:00 am52 °FClear.7 mph88%30.10 "Hg9 mi
Weather by CustomWeather, © 2017

See weather overviewHow to use our weather pages